Disclaimer

Please do not use the information listed here in-flight or in-navigation, as they are not provided to us by the airports but are provided by volunteers, so they might be outdated.

Search


Regions


Airport information page

No radio frequency information is available.

Airport informations:
Latitude: 07° 35' 59.66" S
Longitude: 072° 46' 10.16" W
Elevation: 637 feet - 194 meters
Operating hours: Remarks
Operating agency: Civil government, landing fees and diplomatic clearance may be required
Timezone: UTC-5(-4DT)
Fuel: Jet A1, without icing nhibitor.

100/130 octane gasoline, leaded, MIL-L-5572F (GREEN)

Runway information:
10/28 - 7874 x 148 feet< - >2400 x 45 meters

Recent METARs:
SBCZ 170500Z 33002KT 9999 SCT006 OVC090 23/22 Q1013
SBCZ 170500Z 33002KT 9999 SCT006 OVC090 23/22 Q1013

Airport on the map: